Weather History for Pittsfield, MA

Change the Weather History Date:

Thursday, February 21, 2013

  Actual Average Record
Temperature  
Mean Temperature 18 °F 25 °F  
Max Temperature 21 °F 34 °F 63 °F (1930)
Min Temperature 15 °F 17 °F -14 °F (1950)
Degree Days  
Heating Degree Days 47 40  
Month to date heating degree days 888 884  
Since 1 July heating degree days 4704 5109  
Cooling Degree Days 0 0  
Month to date cooling degree days 0 0  
Year to date cooling degree days 0 0  
Moisture  
Dew Point 9 °F    
Average Humidity 68    
Maximum Humidity 74    
Minimum Humidity 61    
Precipitation  
Precipitation T in 0.10 in 0.75 in (1937)
Month to date precipitation 0.78 2.01  
Year to date precipitation 3.05 4.93  
Sea Level Pressure  
Sea Level Pressure 29.97 in    
Wind  
Wind Speed 16 mph (WNW)    
Max Wind Speed 30 mph    
Max Gust Speed 38 mph    
Visibility 8 miles    
Events Snow    
T = Trace of Precipitation, MM = Missing Value Source: NWS Daily Summary

Daily Weather History Graph

Daily Weather History Graph

Search for Another Location

Airport:

Trip Planner

Search our weather history database for the weather conditions in past years. The results will help you decide how hot, cold, wet, or windy it might be!

Date:

Astronomy

Feb. 21, 2013 Rise Set
Actual Time 6:40 AM EST 5:33 PM EST
Civil Twilight 6:12 AM EST 6:01 PM EST
Nautical Twilight 5:39 AM EST 6:34 PM EST
Astronomical Twilight 5:07 AM EST 7:07 PM EST
Moon 1:42 PM EST (2/21) 3:46 AM EST (2/21)
Length of Visible Light 11h 49m
Length of Day
10h 52m
Waxing Gibbous, 83% of the Moon is Illuminated
Feb 21
Waxing Gibbous
Feb 25
Full
Mar 4
Last Quarter
Mar 11
New
Mar 19
First Quarter

Hourly Weather History & Observations

Time (EST) Temp. Windchill Dew Point Humidity Pressure Visibility Wind Dir Wind Speed Gust Speed Precip Events Conditions
12:54 AM 21.0 °F 5.0 °F 12.0 °F 68% 29.85 in 7.0 mi West 21.9 mph 33.4 mph 0.00 in Snow Light Snow
1:49 AM 19.4 °F 2.1 °F 10.4 °F 68% 29.78 in 10.0 mi WNW 24.2 mph 36.8 mph 0.00 in   Overcast
1:54 AM 19.9 °F 2.2 °F 10.9 °F 68% 29.84 in 10.0 mi West 26.5 mph 35.7 mph 0.00 in Snow Light Snow
2:25 AM 19.4 °F 2.5 °F 10.4 °F 68% 29.78 in 10.0 mi WNW 23.0 mph 36.8 mph 0.00 in   Overcast
2:54 AM 19.9 °F 1.8 °F 10.0 °F 65% 29.84 in 8.0 mi West 27.6 mph 36.8 mph 0.00 in Snow Light Snow
3:54 AM 19.0 °F 2.7 °F 9.0 °F 65% 29.82 in 10.0 mi West 20.7 mph 36.8 mph 0.00 in   Mostly Cloudy
4:54 AM 19.0 °F 3.6 °F 10.0 °F 68% 29.83 in 8.0 mi West 18.4 mph 29.9 mph 0.00 in Snow Light Snow
5:16 AM 19.4 °F 6.6 °F 10.4 °F 68% 29.79 in 9.0 mi WNW 12.7 mph 21.9 mph 0.00 in   Overcast
5:54 AM 19.0 °F 5.0 °F 10.0 °F 68% 29.86 in 8.0 mi WNW 15.0 mph 25.3 mph 0.00 in Snow Light Snow
6:01 AM 19.4 °F 6.0 °F 10.4 °F 68% 29.80 in 10.0 mi West 13.8 mph 25.3 mph N/A   Overcast
6:39 AM 19.4 °F 2.5 °F 8.6 °F 63% 29.81 in 10.0 mi WNW 23.0 mph 35.7 mph N/A   Overcast
6:54 AM 19.0 °F 4.5 °F 10.0 °F 68% 29.87 in 4.0 mi West 16.1 mph 25.3 mph 0.00 in Snow Light Snow
7:04 AM 17.6 °F 3.2 °F 10.4 °F 73% 29.81 in 2.0 mi WNW 15.0 mph 26.5 mph 0.00 in Snow Light Snow
7:11 AM 17.6 °F 2.7 °F 10.4 °F 73% 29.82 in 2.0 mi WNW 16.1 mph 23.0 mph 0.00 in Snow Light Snow
7:30 AM 17.6 °F 2.7 °F 10.4 °F 73% 29.83 in 8.0 mi WNW 16.1 mph 36.8 mph 0.00 in   Overcast
7:50 AM 17.6 °F 4.3 °F 10.4 °F 73% 29.84 in 1.8 mi NW 12.7 mph 29.9 mph 0.00 in Snow Light Snow
7:54 AM 18.0 °F 4.2 °F 10.0 °F 71% 29.90 in 1.0 mi WNW 13.8 mph 35.7 mph 0.00 in Snow Light Snow
8:17 AM 17.6 °F 3.7 °F 8.6 °F 68% 29.85 in 3.0 mi NW 13.8 mph 29.9 mph 0.00 in Snow Light Snow
8:41 AM 15.8 °F 0.9 °F 6.8 °F 68% 29.86 in 2.5 mi NNW 15.0 mph 29.9 mph 0.00 in Snow Light Snow
8:54 AM 16.0 °F 1.7 °F 8.1 °F 71% 29.93 in 1.8 mi WNW 13.8 mph 21.9 mph 0.00 in Snow Light Snow
9:33 AM 15.8 °F -1.9 °F 6.8 °F 68% 29.87 in 3.0 mi WNW 21.9 mph 27.6 mph 0.00 in Snow Light Snow
9:40 AM 15.8 °F 1.4 °F 6.8 °F 68% 29.88 in 4.0 mi WNW 13.8 mph 29.9 mph 0.00 in Snow Light Snow
9:54 AM 17.1 °F 3.0 °F 7.0 °F 65% 29.95 in 5.0 mi NW 13.8 mph 24.2 mph 0.00 in Snow Light Snow
10:54 AM 16.0 °F 3.6 °F 6.1 °F 65% 29.97 in 10.0 mi NW 10.4 mph 18.4 mph 0.00 in   Overcast
11:54 AM 15.1 °F -0.6 °F 6.1 °F 68% 30.00 in 8.0 mi NW 16.1 mph 27.6 mph N/A   Overcast
12:54 PM 16.0 °F 1.1 °F 7.0 °F 68% 29.99 in 10.0 mi NW 15.0 mph 23.0 mph 0.00 in   Overcast
1:54 PM 17.1 °F 1.5 °F 7.0 °F 65% 29.99 in 10.0 mi NW 17.3 mph 28.8 mph N/A   Mostly Cloudy
2:32 PM 17.6 °F -0.6 °F 6.8 °F 63% 29.93 in 10.0 mi WNW 25.3 mph 34.5 mph N/A   Scattered Clouds
2:54 PM 17.1 °F 0.1 °F 7.0 °F 65% 30.01 in 10.0 mi WNW 20.7 mph 29.9 mph N/A   Clear
3:54 PM 17.1 °F 2.5 °F 7.0 °F 65% 30.05 in 10.0 mi NW 15.0 mph 26.5 mph N/A   Clear
4:54 PM 16.0 °F -1.7 °F 6.1 °F 65% 30.08 in 10.0 mi NW 21.9 mph 32.2 mph N/A   Clear
5:54 PM 15.1 °F 2.5 °F 6.1 °F 68% 30.13 in 10.0 mi WNW 10.4 mph 21.9 mph N/A   Partly Cloudy
6:54 PM 16.0 °F 1.1 °F 7.0 °F 68% 30.16 in 10.0 mi WNW 15.0 mph 21.9 mph N/A   Overcast
7:54 PM 16.0 °F 5.3 °F 8.1 °F 71% 30.18 in 10.0 mi WNW 8.1 mph 21.9 mph N/A   Mostly Cloudy
8:02 PM 17.6 °F 5.7 °F 8.6 °F 68% 30.12 in 10.0 mi NW 10.4 mph - N/A   Mostly Cloudy
8:54 PM 16.0 °F 1.1 °F 8.1 °F 71% 30.23 in 10.0 mi NW 15.0 mph - N/A   Mostly Cloudy
9:04 PM 15.8 °F -0.6 °F 8.6 °F 73% 30.17 in 10.0 mi WNW 18.4 mph - N/A   Scattered Clouds
9:54 PM 16.0 °F 0.6 °F 9.0 °F 74% 30.27 in 10.0 mi West 16.1 mph 21.9 mph N/A   Scattered Clouds
10:06 PM 15.8 °F 0.9 °F 8.6 °F 73% 30.21 in 10.0 mi WNW 15.0 mph 20.7 mph N/A   Mostly Cloudy
10:54 PM 16.0 °F 0.6 °F 9.0 °F 74% 30.33 in 10.0 mi WNW 16.1 mph 21.9 mph N/A   Overcast
11:54 PM 17.1 °F 5.0 °F 10.0 °F 74% 30.34 in 10.0 mi WNW 10.4 mph - N/A   Overcast